SCP
0 0 0 0 0 0 0 0 0 1 1 1 2 3 3 4 4 4 3 3 3 4 4 4 3 2 2 3 3 3 3 3 4 6 7 7 6 5 5 4 3 3 3 2
0 0 0 0 0 0 0 0 0 1 1 1 2 3 4 4 4 4 3 4 4 3 3 3 3 2 2 3 3 3 3 3 4 6 7 7 7 6 5 4 4 3 3 2
0 0 0 0 1 1 1 1 1 1 1 2 3 4 4 5 5 4 4 4 4 3 3 3 2 2 3 3 4 3 3 3 4 5 6 6 6 5 4 4 3 3 3 2
0 0 0 1 1 1 1 1 1 1 2 3 3 4 4 5 5 4 4 4 4 4 3 3 2 2 3 4 4 4 4 4 4 4 4 4 4 3 3 3 3 3 3 2
0 0 0 1 1 1 1 1 1 2 3 4 4 5 4 4 4 3 3 4 4 5 4 3 2 2 3 4 4 4 4 4 4 4 4 3 3 2 2 2 2 2 3 3
0 0 1 1 1 1 1 1 2 3 4 5 5 4 4 3 3 3 3 4 5 6 5 3 2 2 3 4 4 4 4 4 4 4 4 3 2 2 2 2 2 2 3 4
0 0 1 1 2 2 1 1 2 3 4 4 4 4 4 4 4 4 4 4 5 6 5 3 2 3 3 4 4 4 4 4 4 4 3 2 2 2 2 2 2 2 3 5
0 1 1 1 2 2 2 2 3 4 4 4 4 4 5 6 6 5 5 4 4 5 5 3 2 2 3 3 3 4 4 4 3 2 2 1 1 2 2 2 3 3 3 5
1 1 1 2 2 2 3 3 4 5 5 4 4 5 5 6 6 6 5 4 4 4 4 2 2 2 2 2 3 3 3 3 2 1 1 1 1 2 2 2 2 2 3 3
2 2 2 2 2 2 3 4 4 5 5 4 4 4 5 6 6 6 5 5 4 4 3 2 2 2 2 2 2 2 2 2 1 1 1 1 1 1 1 2 2 2 2 2
2 2 2 2 2 2 3 3 4 5 5 4 4 4 4 5 5 6 6 6 6 5 4 3 2 2 2 2 2 1 1 1 1 1 1 1 1 1 1 1 1 1 1 1
1 1 2 2 2 3 3 3 3 5 6 6 5 5 5 5 5 6 6 6 6 6 4 3 2 2 2 2 1 1 0 0 0 1 1 1 0 0 0 0 0 0 0 0
1 1 2 2 2 3 3 3 3 4 6 7 7 6 6 5 6 6 6 6 6 6 4 3 2 2 2 2 1 0 0 0 0 0 0 0 0 0 0 0 0 0 0 0
1 1 1 2 2 2 3 3 4 4 5 6 6 6 5 5 6 6 6 6 6 6 4 3 3 2 2 1 1 0 0 0 0 0 0 0 0 0 0 0 0 0 0 0
1 1 1 1 2 2 2 4 5 4 4 4 4 4 4 5 6 6 6 6 6 6 5 4 3 2 1 1 0 0 0 0 0 0 0 0 0 0 0 0 0 0 0 0
1 1 1 1 1 2 2 3 4 4 4 4 4 4 4 5 5 6 6 6 6 5 4 3 2 1 1 0 0 0 1 1 0 0 0 0 0 0 0 0 0 0 0 0
1 1 1 1 1 2 2 2 3 3 4 5 6 6 5 5 5 5 6 6 5 4 3 2 1 0 0 0 0 0 1 1 1 0 0 0 0 0 0 0 0 0 0 0
1 1 0 1 1 2 2 2 2 3 5 6 7 7 6 6 5 5 6 6 5 3 2 1 0 0 0 0 0 0 1 1 1 0 0 0 0 0 0 0 0 0 0 0
0 0 0 0 1 1 1 1 2 3 6 8 8 7 6 6 6 6 6 5 4 3 1 0 0 0 0 0 0 0 0 1 1 0 0 0 0 0 0 0 0 0 0 0
0 0 0 0 1 0 0 0 1 3 7 11 9 7 7 7 7 6 5 4 3 2 1 0 0 0 0 0 0 0 0 0 0 0 0 0 0 0 0 0 0 0 0 0
0 0 0 0 0 0 0 1 2 3 6 9 8 7 7 7 6 5 4 3 2 1 0 0 0 0 0 0 0 0 0 0 0 0 0 0 0 0 0 0 0 0 0 0
0 0 0 0 0 0 1 2 2 3 4 5 5 5 5 5 4 2 1 1 0 0 0 0 0 0 0 0 0 0 0 0 0 0 0 0 0 0 0 0 0 0 0 0
0 0 0 1 1 1 2 2 2 2 3 2 2 2 2 2 1 1 0 0 0 0 0 0 0 0 0 0 0 0 0 0 0 0 0 0 0 0 0 0 0 0 0 0
0 0 0 1 1 1 1 1 1 1 1 1 0 0 0 0 0 0 0 0 0 0 0 0 0 0 0 0 0 0 0 0 0 0 0 0 0 0 0 0 0 0 0 0
0 0 0 1 1 1 1 0 0 0 0 0 0 0 0 0 0 0 0 0 0 0 0 0 0 0 0 0 0 0 0 0 0 0 0 0 0 0 0 0 0 0 0 0
0 0 0 0 0 0 0 0 0 0 0 0 0 0 0 0 0 0 0 0 0 0 0 0 0 0 0 0 0 0 0 0 0 0 0 0 0 0 0 0 0 0 0 0
0 0 0 0 0 0 0 0 0 0 0 0 0 0 0 0 0 0 0 0 0 0 0 0 0 0 0 0 0 0 0 0 0 0 0 0 0 0 0 0 0 0 0 0
Wind_Speed
4 3 4 4 6 7 6 9 9 9 8 8 7 5 4 5 6 6 6 6 6 5 5 5 5 4 3 3 3 4 5 4 3 3 3 3 3 3 3 3 3 3 4 4
1 1 3 2 3 6 5 5 5 4 6 5 3 4 5 6 7 7 6 6 6 6 6 6 6 5 4 4 4 5 5 4 4 4 4 3 3 4 4 4 4 5 5 5
2 1 3 1 3 5 4 4 8 8 8 4 5 7 8 8 8 7 7 7 7 6 5 5 5 5 6 5 5 6 6 5 5 5 5 4 5 5 5 5 5 5 5 6
3 3 3 6 2 3 4 2 3 4 4 7 6 5 4 5 7 7 7 7 7 6 6 5 5 6 6 7 7 7 6 6 5 5 6 5 6 5 5 5 5 5 5 5
5 4 2 2 0 2 3 1 2 4 4 6 9 7 3 2 5 6 7 7 6 6 7 7 7 7 8 7 7 7 6 6 5 6 7 7 6 6 5 6 6 6 5 6
5 5 5 5 2 1 4 1 2 4 7 8 8 5 4 5 6 7 7 7 7 7 8 8 6 7 8 8 7 6 6 6 6 6 7 7 7 6 5 6 6 6 7 6
4 3 4 4 4 1 4 6 2 4 7 8 5 4 6 8 8 8 8 8 8 8 7 6 6 8 9 8 6 5 6 7 7 7 7 7 6 6 6 6 6 7 7 6
4 3 5 3 1 4 5 2 2 4 5 6 6 8 9 9 9 9 9 9 8 8 7 5 6 8 9 7 6 6 7 8 7 7 6 6 7 6 6 6 7 6 6 6
5 5 4 3 2 2 1 1 1 4 6 9 9 9 9 9 9 9 9 8 8 9 8 6 5 7 9 6 7 8 8 8 7 7 7 6 6 6 5 5 5 4 5 5
2 1 2 2 2 2 1 1 2 5 7 9 10 9 9 9 9 8 8 8 8 9 8 6 5 6 7 7 7 9 9 7 7 7 7 7 5 5 5 4 4 4 4 4
1 1 2 3 2 3 4 5 6 6 6 8 10 9 9 9 9 8 7 7 7 8 8 7 6 6 6 6 8 9 8 7 7 7 7 7 7 6 5 5 3 4 4 4
4 5 3 2 2 1 5 5 6 7 7 6 8 8 9 8 7 7 7 7 7 7 7 7 7 6 5 5 7 9 8 6 5 5 5 5 6 7 12 9 11 10 8 6
3 2 2 1 1 2 4 5 6 6 7 8 6 7 9 8 6 7 8 8 7 7 7 7 7 6 5 5 7 8 8 6 5 5 5 5 5 6 6 8 11 12 10 9
2 3 2 1 1 2 5 6 7 7 7 7 7 8 8 8 8 7 7 7 7 8 7 7 7 6 5 6 7 8 8 7 6 4 4 5 5 5 5 5 5 5 7 9
0 2 3 3 3 3 5 6 8 7 7 7 7 8 8 9 8 7 6 7 8 8 7 7 7 5 4 6 8 8 7 5 5 5 4 5 5 5 5 5 5 4 4 5
2 4 4 4 4 4 5 6 7 6 6 7 7 7 7 8 8 7 6 7 8 8 7 6 6 5 5 7 7 6 5 9 7 5 5 5 5 5 5 5 5 4 3 3
4 3 3 4 4 4 4 4 5 6 6 7 7 8 8 9 8 7 6 5 6 6 6 6 5 5 5 6 7 5 5 7 9 6 5 5 5 5 4 4 4 4 3 3
3 3 4 5 5 5 4 4 5 5 6 7 8 8 8 8 8 7 6 7 7 6 5 4 5 5 6 6 5 5 5 5 5 5 5 4 4 4 4 4 4 4 3 4
2 3 3 3 4 4 4 5 5 5 6 7 8 8 7 7 7 8 7 7 7 6 3 4 6 6 6 6 6 5 6 6 5 5 5 6 5 4 4 4 4 4 4 3
2 3 3 3 4 4 5 5 5 5 5 7 8 8 8 7 7 8 7 6 3 3 4 5 6 5 5 6 7 5 6 6 6 5 5 5 5 5 4 4 4 4 3 3
2 3 3 3 3 3 4 6 6 6 6 7 8 9 8 7 7 7 7 5 3 4 6 7 5 5 5 6 7 6 6 6 6 5 5 5 5 5 4 4 4 4 3 3
2 2 3 4 4 4 4 5 6 7 7 7 7 8 9 8 8 6 5 4 5 6 5 5 5 6 8 8 6 6 6 6 6 5 5 5 5 5 4 4 4 3 3 3
1 2 2 4 5 5 5 5 6 7 7 8 8 9 9 7 6 7 5 3 5 7 6 5 7 10 11 7 6 6 6 6 5 5 5 4 4 4 4 4 3 3 3 2
2 2 3 4 5 6 6 5 5 6 6 6 6 7 8 7 5 4 5 7 8 8 6 7 11 11 10 6 6 5 5 5 5 5 4 4 4 4 3 3 3 3 2 2
3 3 5 6 5 5 5 7 7 7 8 6 7 6 5 5 6 6 6 7 9 8 7 8 10 10 7 5 5 5 4 4 5 5 4 4 4 3 3 3 3 3 2 2
3 3 3 4 4 4 5 5 6 6 7 7 6 5 5 5 7 7 6 7 9 8 6 5 6 6 5 5 5 5 5 5 5 4 4 4 4 3 3 3 3 2 2 1
4 4 4 4 4 4 4 5 6 6 6 7 7 5 6 6 6 7 7 6 6 6 5 5 5 5 5 5 5 5 4 4 4 4 4 3 3 3 3 3 2 2 1 1
Wind_Direction
207 207 165 159 168 168 167 172 173 211 214 231 217 199 177 149 134 125 125 130 132 130 125 118 112 107 118 116 116 126 126 128 132 123 115 111 107 102 101 106 105 96 87 78
192 203 171 154 173 174 178 173 184 177 235 238 170 139 148 151 146 143 145 141 130 126 123 123 124 128 125 116 117 118 119 119 112 105 102 101 94 89 91 88 85 81 79 78
200 230 106 236 217 177 173 182 168 189 219 175 158 173 174 164 157 156 156 141 133 128 124 123 123 125 122 115 111 111 113 112 108 107 102 94 93 88 89 87 84 80 76 77
130 110 181 240 252 163 153 196 205 207 198 175 168 143 126 146 153 154 146 134 131 126 118 111 106 105 104 103 104 105 103 100 101 104 101 94 89 85 85 86 84 79 74 78
118 138 240 279 164 146 141 258 212 179 149 127 118 92 72 130 145 148 137 130 127 124 116 109 108 111 108 103 101 102 104 104 104 106 102 94 88 83 81 84 80 76 73 74
118 132 202 232 263 254 118 278 249 164 154 150 136 141 199 158 133 124 115 113 114 108 105 106 109 113 107 105 102 102 104 102 97 97 98 96 91 84 81 85 86 84 73 66
123 146 246 259 293 132 154 227 220 168 162 161 174 175 140 127 119 117 111 110 109 107 105 108 114 112 107 105 103 104 103 98 91 90 94 94 89 83 87 90 87 82 78 65
123 136 241 306 16 164 210 252 157 150 148 136 121 112 115 116 116 115 111 108 109 107 99 99 108 113 110 108 109 105 101 96 91 88 90 90 89 82 81 88 87 82 80 70
168 195 245 294 265 278 200 162 151 139 130 131 127 125 121 116 114 112 111 110 108 110 108 96 95 110 114 114 114 110 103 98 95 89 83 85 89 89 81 82 88 86 88 84
109 292 303 322 339 13 70 118 104 125 129 128 127 128 125 122 118 115 113 115 115 114 112 107 98 100 113 119 119 113 109 103 98 94 88 80 74 73 79 80 91 95 95 92
96 284 347 360 20 57 73 86 94 100 112 125 126 127 127 124 124 123 120 118 118 120 122 119 110 103 106 114 116 111 107 103 98 95 96 86 73 60 67 58 83 105 101 98
199 215 178 235 287 92 97 99 106 106 100 105 121 129 127 123 122 123 123 121 119 119 120 118 113 107 103 112 119 118 114 108 105 105 101 98 94 78 60 69 69 73 82 92
199 180 165 185 31 77 100 109 105 105 115 115 113 123 123 120 118 121 124 126 130 129 125 122 117 114 114 116 118 119 121 119 116 114 114 114 111 108 97 68 63 63 66 75
175 128 116 127 118 88 102 103 97 93 96 109 118 120 121 120 121 126 132 133 129 123 122 122 119 119 121 121 119 118 119 121 122 122 122 118 115 115 114 112 95 66 53 65
29 144 150 132 107 98 103 107 105 105 106 107 116 122 126 128 130 128 124 123 122 120 121 123 122 123 123 121 120 122 123 124 122 118 116 115 114 112 108 106 104 97 85 67
87 95 112 119 125 123 120 123 125 128 126 122 119 120 122 123 122 122 125 131 134 136 137 133 130 134 130 126 123 121 122 128 127 124 121 119 118 117 115 112 108 103 96 90
131 145 150 155 151 142 144 147 147 143 136 130 130 125 123 122 121 121 121 121 122 124 128 131 133 132 131 131 130 128 125 129 129 126 126 128 126 126 125 123 119 111 95 79
167 175 172 167 157 143 135 126 124 127 132 131 128 129 132 134 135 133 128 121 113 105 106 122 130 130 129 128 126 126 128 130 131 132 130 125 123 121 120 118 119 114 101 86
119 125 126 134 140 138 132 128 129 129 128 130 133 135 132 131 130 129 126 123 123 123 121 120 127 127 127 129 125 124 127 127 125 122 122 122 119 117 117 116 115 112 112 108
105 119 123 125 120 130 133 133 131 127 130 135 133 128 125 125 127 128 123 119 122 129 134 129 123 118 118 122 121 121 126 127 126 124 123 126 127 126 123 122 123 122 119 115
111 128 131 127 130 136 142 143 140 140 138 140 141 142 137 131 129 129 126 118 101 113 123 124 120 120 117 119 116 116 118 119 121 125 127 129 128 128 128 128 128 126 122 119
111 132 143 141 140 135 133 135 139 138 136 136 134 132 131 130 126 116 108 121 132 128 121 116 115 118 121 119 114 116 118 119 119 119 120 124 128 130 130 131 130 127 126 129
137 138 143 143 140 132 121 124 133 137 138 140 140 141 138 135 136 134 128 124 128 125 118 115 118 118 117 111 111 113 116 118 120 122 123 127 132 134 136 138 139 139 142 150
117 120 127 124 119 121 122 122 123 123 123 123 128 133 132 126 111 96 111 126 125 121 114 118 120 120 116 110 113 115 117 120 122 124 127 129 130 130 135 143 147 149 158 168
120 121 125 126 127 129 127 121 115 116 115 111 110 111 112 119 124 124 120 123 123 119 116 121 121 120 115 114 116 118 122 126 129 129 131 133 134 137 143 150 157 159 164 170
126 122 126 130 130 130 130 126 124 124 122 119 112 111 111 111 114 117 118 121 121 119 118 120 123 122 119 120 121 124 126 129 128 130 135 136 138 141 143 143 147 151 156 161
109 110 113 112 112 120 125 126 128 128 129 129 124 124 124 121 120 121 121 122 121 118 116 117 120 123 123 121 120 121 123 123 125 128 132 137 141 145 145 142 137 134 133 134